Northeast Philadelphia, PA

8:23 PM EDT on April 24, 2017 (GMT -0400)
Northeast Philadelphia

Weather History for KPNE - October, 2011

Change the Weather History Date:

Tuesday, October 18, 2011

  Actual Average Record
Temperature  
Mean Temperature 58 °F -  
Max Temperature 71 °F 62 °F 84 °F (2016)
Min Temperature 46 °F 42 °F 35 °F (2015)
Degree Days  
Heating Degree Days 7    
Growing Degree Days 8 (Base 50)    
Moisture  
Dew Point 44 °F    
Average Humidity 63    
Maximum Humidity 93    
Minimum Humidity 28    
Precipitation  
Precipitation 0.00 in - - ()
Sea Level Pressure  
Sea Level Pressure 29.87 in    
Wind  
Wind Speed 2 mph (East)    
Max Wind Speed 7 mph    
Max Gust Speed -    
Visibility 10 miles    
Events      
Averages and records for this station are not official NWS values.
T = Trace of Precipitation, MM = Missing Value Source: NWS Daily Summary

Daily Weather History Graph

Daily Weather History Graph

Search for Another Location

Airport or City:

Trip Planner

Search our weather history database for the weather conditions in past years. The results will help you decide how hot, cold, wet, or windy it might be!

Date:

Astronomy

Oct. 18, 2011 Rise Set
Actual Time 7:13 AM EDT 6:16 PM EDT
Civil Twilight 6:46 AM EDT 6:43 PM EDT
Nautical Twilight 6:14 AM EDT 7:15 PM EDT
Astronomical Twilight 5:43 AM EDT 7:46 PM EDT
Moon 10:54 PM EDT (10/18) 1:02 PM EDT (10/18)
Length of Visible Light 11h 57m
Length of Day
11h 02m
Waning Gibbous, 65% of the Moon is Illuminated
Oct 18
Waning Gibbous
Oct 19
Last Quarter
Oct 26
New
Nov 2
First Quarter
Nov 10
Full

Hourly Weather History & Observations

Time (EDT) Temp. Dew Point Humidity Pressure Visibility Wind Dir Wind Speed Gust Speed Precip Events Conditions
12:54 AM 48.2 °F 44.6 °F 87% 29.84 in 10.0 mi Calm Calm - N/A   Clear
1:54 AM 48.9 °F 46.0 °F 90% 29.83 in 10.0 mi Calm Calm - N/A   Clear
2:54 AM 48.0 °F 46.0 °F 93% 29.83 in 10.0 mi Calm Calm - N/A   Clear
3:54 AM 46.9 °F 44.1 °F 90% 29.84 in 10.0 mi Calm Calm - N/A   Clear
4:54 AM 48.0 °F 46.0 °F 93% 29.86 in 9.0 mi Calm Calm - N/A   Clear
6:54 AM 48.0 °F 46.0 °F 93% 29.88 in 7.0 mi Calm Calm - N/A   Scattered Clouds
8:54 AM 55.0 °F 52.0 °F 89% 29.90 in 7.0 mi Calm Calm - N/A   Partly Cloudy
9:54 AM 62.6 °F 51.8 °F 68% 29.90 in 10.0 mi Calm Calm - N/A   Partly Cloudy
10:54 AM 64.9 °F 36.0 °F 34% 29.91 in 10.0 mi Calm Calm - N/A   Clear
11:54 AM 66.9 °F 35.1 °F 31% 29.90 in 10.0 mi ESE 3.5 mph - N/A   Clear
12:54 PM 66.9 °F 37.9 °F 34% 29.88 in 10.0 mi South 5.8 mph - N/A   Clear
1:54 PM 69.1 °F 35.1 °F 29% 29.86 in 10.0 mi SSE 3.5 mph - N/A   Partly Cloudy
3:54 PM 70.0 °F 35.1 °F 28% 29.85 in 10.0 mi ESE 3.5 mph - N/A   Partly Cloudy
4:54 PM 68.0 °F 37.9 °F 33% 29.85 in 10.0 mi ESE 5.8 mph - N/A   Clear
5:54 PM 66.9 °F 39.0 °F 36% 29.85 in 10.0 mi East 4.6 mph - N/A   Mostly Cloudy
6:54 PM 61.0 °F 43.0 °F 52% 29.86 in 10.0 mi Calm Calm - N/A   Clear
7:54 PM 62.1 °F 42.1 °F 48% 29.87 in 10.0 mi SE 6.9 mph - N/A   Clear
8:54 PM 59.0 °F 44.6 °F 59% 29.88 in 10.0 mi East 3.5 mph - N/A   Clear
9:54 PM 55.9 °F 46.9 °F 72% 29.88 in 10.0 mi NE 6.9 mph - N/A   Clear
10:46 PM 57.2 °F 48.2 °F 72% 29.88 in 10.0 mi NE 5.8 mph - N/A   Overcast
10:54 PM 57.9 °F 48.9 °F 72% 29.87 in 10.0 mi NE 6.9 mph - N/A   Overcast
11:13 PM 59.0 °F 51.8 °F 77% 29.88 in 10.0 mi ENE 5.8 mph - N/A   Overcast
11:54 PM 60.1 °F 54.0 °F 80% 29.87 in 10.0 mi NE 5.8 mph - N/A   Overcast